Dewpoint
55 53 53 53 53 52 50 48 47 47 46 45 45 45 44 44 45 45 45 45 45 45 45 45 45 45 45 44 44 42 41 40 39 39 39 38 36 34 29 30 33 39 33
56 55 55 54 55 52 50 48 48 48 46 45 45 44 44 43 44 44 44 44 45 45 45 45 44 44 44 43 42 42 42 41 39 38 38 37 35 35 30 27 32 26 28
55 56 55 55 55 53 51 48 48 48 48 45 45 44 43 43 43 43 43 44 44 44 44 44 44 44 43 43 42 42 41 39 39 38 37 36 36 34 30 29 33 31 27
56 56 55 54 53 52 51 49 48 48 48 47 44 44 44 42 42 42 42 42 43 43 44 44 44 44 44 42 41 41 40 40 39 38 36 33 35 33 30 25 24 30 32
55 55 55 55 55 52 51 50 49 50 49 48 47 45 44 42 41 42 42 42 42 42 43 43 44 44 43 44 41 41 40 39 38 36 34 32 33 29 23 28 23 25 27
55 54 54 54 54 53 53 52 50 50 50 48 46 45 43 42 43 44 42 41 41 41 41 42 42 42 43 44 43 42 41 39 37 35 33 30 30 26 29 26 25 23 18
55 54 54 53 53 52 53 52 51 50 50 48 47 46 45 44 45 45 44 40 40 41 41 41 40 40 42 43 44 43 42 41 40 36 33 29 28 27 28 27 27 25 22
52 52 52 52 52 52 51 50 49 49 48 47 46 46 45 45 46 46 45 41 40 40 40 40 40 39 41 42 42 41 40 40 39 34 34 30 28 30 30 27 27 27 28
48 49 50 50 49 48 48 48 48 48 47 46 46 44 43 43 45 45 43 40 39 38 38 38 38 38 41 42 39 38 36 36 37 34 31 31 32 33 33 31 27 24 22
43 44 45 47 47 46 46 45 45 45 45 44 44 44 44 43 45 45 42 41 39 39 38 37 39 38 41 42 37 36 34 34 31 32 33 35 35 35 36 28 28 26 26
39 40 40 41 42 43 44 42 43 44 44 43 42 42 42 42 44 45 44 41 40 38 37 36 38 40 42 42 38 35 35 34 33 33 33 32 33 35 33 29 28 29 29
37 37 37 37 37 38 38 37 39 40 40 39 39 39 41 42 44 45 44 42 41 38 36 36 37 41 42 42 38 36 36 35 31 29 29 28 28 29 30 30 30 30 29
35 35 35 34 34 35 35 35 35 35 35 36 37 37 37 38 42 44 45 42 41 36 35 36 38 41 42 41 38 36 36 32 29 28 27 28 29 30 30 30 30 29 29
33 33 33 33 33 33 34 33 33 34 34 33 34 34 35 36 39 42 42 41 40 37 38 38 38 40 40 40 38 36 33 31 30 29 29 30 29 29 29 30 29 28 27
32 33 33 33 32 32 32 32 32 32 34 33 34 34 33 33 35 41 41 39 39 36 37 37 37 38 37 36 36 34 33 31 31 31 31 29 28 28 29 29 28 27 27
30 31 32 32 32 32 32 31 35 35 36 36 35 34 33 33 36 40 42 41 40 38 34 34 35 36 36 35 34 33 33 33 32 31 31 30 30 29 29 29 28 27 26
29 28 28 28 27 27 28 29 29 31 37 36 36 35 34 32 37 38 40 41 40 38 33 33 33 34 34 34 33 33 33 33 33 33 33 32 31 30 29 29 28 27 26
29 31 31 33 31 29 28 28 28 27 29 31 36 36 37 36 36 37 38 40 38 37 32 31 32 32 33 33 32 32 33 33 33 33 33 33 32 31 30 29 28 27 27
31 31 30 30 31 32 31 31 31 31 30 31 32 35 37 37 36 36 36 36 36 35 31 31 32 33 33 33 33 34 34 33 33 32 32 31 31 31 29 29 29 28 28
30 32 32 30 30 30 30 30 30 30 30 30 31 33 34 35 33 33 33 34 34 33 33 33 33 33 33 33 33 33 33 33 32 32 32 32 32 31 29 29 28 27 29
27 27 30 29 29 31 30 30 30 30 29 29 30 32 34 33 33 33 33 33 33 33 33 33 33 33 33 33 33 33 33 33 33 33 32 32 31 29 28 28 28 27 26
26 26 26 26 27 27 28 27 27 28 29 29 29 30 31 32 33 32 32 33 33 33 34 33 33 33 34 33 33 33 33 33 33 33 32 32 31 30 28 27 27 26 26
23 23 23 23 24 25 24 25 25 26 26 27 27 28 29 30 31 31 30 31 33 33 33 33 33 33 34 34 34 33 33 33 33 33 32 31 29 28 28 27 27 27 25
20 19 20 20 21 22 22 23 23 23 24 24 24 25 26 27 28 29 30 30 31 32 33 33 33 33 33 33 33 33 33 33 33 32 31 29 28 28 28 28 27 26 25
17 17 18 19 19 20 20 20 21 21 22 22 23 24 24 24 25 26 26 27 28 28 29 29 30 30 30 29 30 31 31 32 31 30 29 28 28 28 27 27 26 25 24
17 17 17 18 17 18 18 19 19 20 20 21 22 22 23 23 23 23 23 23 24 24 24 26 26 26 26 27 27 28 30 31 31 31 29 28 27 27 26 26 25 25 24
Lifted_Index
3 2 2 1 -0 -0 -0 -0 -0 0 1 2 2 2 1 1 2 5 8 11 12 13 13 13 13 13 13 13 13 14 14 14 14 14 14 14 15 16 18 20 21 21 21
2 2 2 1 1 1 0 0 0 1 1 1 2 2 1 1 1 3 7 10 12 13 13 13 13 13 13 13 13 14 14 15 14 14 14 15 15 17 18 20 21 21 21
1 1 1 1 1 1 1 1 1 1 1 1 2 2 2 1 1 2 6 9 11 12 13 13 13 13 13 13 13 13 14 14 14 14 15 15 16 17 19 20 21 21 21
0 0 0 0 1 1 1 1 2 2 1 1 2 2 3 2 2 3 5 8 10 11 12 13 13 12 12 12 12 13 13 14 14 14 14 15 16 17 18 19 19 20 20
-1 -1 -1 -1 -0 0 1 1 1 1 1 1 1 2 3 3 3 3 6 8 10 11 12 13 13 12 12 12 12 12 12 13 13 13 14 14 15 16 17 18 18 19 19
-1 -1 -1 -1 -1 0 1 1 1 1 1 1 1 2 2 3 3 4 6 8 10 11 12 13 13 13 12 12 12 12 12 12 12 13 13 14 15 16 17 18 18 17 17
0 -0 -0 -1 -1 -0 0 1 1 2 2 2 2 2 3 3 3 5 6 8 10 12 13 13 13 13 13 12 12 12 12 12 12 13 14 14 15 17 18 18 18 17 17
1 1 1 0 -0 -0 0 1 1 2 2 3 3 4 4 4 4 6 7 8 10 12 13 13 13 13 13 13 13 13 12 13 13 14 15 16 17 18 18 18 18 18 17
3 2 2 1 0 0 -0 0 1 1 2 3 4 5 5 5 5 6 7 8 10 11 12 13 13 13 13 13 13 13 13 13 14 15 16 17 18 18 19 18 18 17 17
3 3 2 2 1 1 0 0 1 1 2 3 4 5 5 5 5 6 6 7 8 9 10 11 12 13 13 13 13 13 13 14 15 16 17 18 18 18 19 18 18 17 16
4 3 3 2 2 2 2 2 2 3 3 3 3 3 4 5 5 6 6 7 7 8 8 10 12 13 13 13 13 14 14 15 16 17 17 17 18 18 18 18 18 17 17
5 5 5 4 4 4 4 4 4 4 4 3 3 3 4 4 5 6 7 7 8 8 9 10 12 13 13 13 14 14 15 15 16 17 17 17 17 18 18 18 18 18 18
7 7 6 6 6 6 6 5 5 5 5 4 4 4 4 4 6 7 8 8 9 10 11 11 12 12 13 13 13 14 15 15 16 16 16 17 17 17 17 17 17 17 17
7 7 7 7 7 7 7 7 6 6 5 5 5 5 5 5 6 7 8 9 9 10 11 12 12 12 13 13 13 14 14 15 16 16 16 16 17 17 16 16 17 16 16
6 6 7 7 8 8 8 8 7 7 7 6 6 6 6 7 8 8 9 9 10 10 11 12 12 12 13 13 13 14 14 15 16 16 16 16 15 15 15 16 16 16 15
6 6 7 7 7 7 7 8 8 8 8 8 8 9 9 9 9 9 9 10 10 11 11 12 12 12 12 13 13 14 15 15 15 15 15 15 14 14 14 15 15 15 15
6 6 7 7 7 7 7 7 8 8 9 9 9 10 10 10 10 11 11 11 12 12 12 12 12 12 13 13 13 14 14 14 13 13 14 14 13 13 14 15 15 14 14
7 7 7 7 7 7 7 8 8 8 8 9 10 10 10 11 11 11 11 11 11 12 12 12 12 13 13 13 13 13 13 12 11 12 13 13 12 12 13 14 14 14 13
9 9 9 8 8 8 8 8 8 8 8 9 9 10 10 11 11 11 11 11 10 10 11 11 11 12 13 13 13 12 12 11 12 12 13 12 12 12 12 13 13 13 13
11 11 11 11 11 10 10 10 9 9 9 9 9 10 10 10 10 10 11 11 10 10 10 11 11 11 12 12 12 12 12 12 12 13 12 12 12 12 12 12 12 12 12
13 13 13 13 13 12 12 11 11 11 10 10 10 10 11 10 10 10 11 11 11 11 11 11 11 12 12 12 12 12 12 12 12 12 12 12 12 12 12 12 12 11 11
15 15 14 14 14 14 14 13 13 13 12 12 12 12 12 12 11 11 11 12 12 12 12 12 12 12 12 12 12 12 12 12 12 11 11 11 11 11 11 11 11 11 10
15 15 15 15 15 15 15 15 14 14 14 14 14 14 13 13 13 13 12 12 13 13 13 13 13 13 12 12 12 12 12 11 11 11 10 10 10 10 10 10 10 9 9
15 15 15 15 15 15 15 15 15 15 15 15 15 15 14 14 14 14 13 13 13 13 13 13 13 13 12 12 12 12 11 11 11 10 10 9 9 9 9 9 9 9 9
14 14 14 14 14 15 15 15 15 15 15 15 15 15 15 15 14 14 13 13 13 12 12 12 12 12 12 12 11 11 11 10 10 9 9 9 8 8 8 8 8 9 9
14 14 14 14 14 14 14 14 14 14 14 15 15 15 15 15 14 14 13 13 13 12 12 12 12 12 12 11 11 11 10 10 9 9 8 8 8 7 7 8 8 8 8